Cloud_Cover
0 0 0 0 0 5 0 4 5 5 5 5 5 5 5 5 42 100 92 15 98 97
0 0 0 0 0 0 0 0 5 5 5 5 5 5 34 12 39 100 76 17 61 76
0 0 0 0 0 0 0 0 5 16 31 5 5 5 92 45 6 15 5 5 97 100
0 0 0 0 0 0 0 0 0 4 18 21 5 5 9 44 86 27 5 5 56 56
0 0 0 0 0 0 0 0 0 1 6 62 6 5 5 5 6 53 68 5 81 65
0 0 0 0 0 0 0 0 0 0 4 5 77 36 19 5 5 5 8 47 88 59
0 0 0 0 0 0 0 0 0 0 0 4 72 100 99 7 5 5 5 5 8 62
0 0 0 0 0 0 0 0 0 0 0 0 5 99 100 17 5 1 5 5 5 24
0 0 0 0 0 0 0 1 0 0 0 0 3 35 99 73 4 3 4 5 5 69
0 2 5 5 2 2 1 0 4 0 0 0 4 24 100 8 0 0 0 2 5 5
0 5 5 5 5 5 6 9 7 2 5 5 2 9 86 44 5 5 1 0 0 3
5 4 5 5 42 26 5 25 97 38 5 5 5 2 68 56 5 5 3 0 0 2
5 5 5 5 7 62 41 100 100 84 16 49 5 6 41 39 5 5 0 0 0 0
5 5 6 5 16 91 32 49 100 97 77 31 97 73 36 11 56 5 5 5 65 72